Overview Statistics Trail Chart Weather Telemetry Raw packets
 

This is the latest recevied weather packets stored in our database for station/object SV9TNF-51. If no packets are shown the sender has not sent any weather packets the latest 10 day(s).

<< 29 30 31 32 33 34 35 >>
Time Temp. Humidity Pressure Rain* Wind** Luminosity Snow
1788470064 25.56° C 51% 1010.5 hPa 0 mm 2.24 m/s, 346° - -
1788469764 25.56° C 52% 1010.5 hPa 0 mm 4.47 m/s, 3° - -
1788469464 25° C 51% 1010.5 hPa 0 mm 1.79 m/s, 170° - -
1788469164 25° C 52% 1010.5 hPa 0 mm 1.79 m/s, 139° - -
1788468864 25.56° C 57% 1010.5 hPa 0 mm 2.24 m/s, 171° - -
1788468563 25.56° C 61% 1010.5 hPa 0 mm 4.02 m/s, 52° - -
1788468264 25.56° C 61% 1010.5 hPa 0 mm 1.79 m/s, 113° - -
1788467963 25.56° C 60% 1010.5 hPa 0 mm 3.13 m/s, 68° - -
1788467663 25.56° C 60% 1010.5 hPa 0 mm 3.13 m/s, 36° - -
1788467363 25.56° C 60% 1010.5 hPa 0 mm 2.24 m/s, 102° - -
1788467074 25.56° C 60% 1010.5 hPa 0 mm 0.89 m/s, 124° - -
1788466763 25.56° C 59% 1010.5 hPa 0 mm 3.13 m/s, 80° - -
1788466463 25.56° C 59% 1010.5 hPa 0 mm 0 m/s - -
1788466163 25.56° C 58% 1010.5 hPa 0 mm 0 m/s - -
1788465863 25.56° C 58% 1010.5 hPa 0 mm 2.24 m/s, 103° - -
1788465563 25.56° C 58% 1010.5 hPa 0 mm 0 m/s - -
1788465263 25.56° C 58% 1010.5 hPa 0 mm 0 m/s - -
1788464962 25.56° C 57% 1010.5 hPa 0 mm 0 m/s - -
1788464662 25.56° C 56% 1010.5 hPa 0 mm 1.79 m/s, 110° - -
1788464362 25.56° C 55% 1010.5 hPa 0 mm 0.89 m/s, 127° - -
1788464062 25.56° C 55% 1010.5 hPa 0 mm 0 m/s - -
1788463762 26.11° C 54% 1010.5 hPa 0 mm 0.89 m/s, 124° - -
1788463462 26.11° C 54% 1010.5 hPa 0 mm 1.34 m/s, 129° - -
1788463162 26.11° C 53% 1010.5 hPa 0 mm 0.89 m/s, 126° - -
1788462862 26.11° C 53% 1010.5 hPa 0 mm 0.45 m/s, 127° - -

* Rain latest hour (hover to see other rain measurements)
** Current wind speed in m/s (hover to see current wind gust speed)